Location: Poprad
(49.0500°N, 20.3000°E)
Time: 20:58:19
(UTC+02:00)

EO-79 - Visible Passes

Search period start: 22 April 2024 00:00
Search period end: 02 May 2024 00:00
Orbit: 565 x 577 km, 98.0° (Epoch: 21 April)

Date Brightness Start Highest point End Pass type
(mag) Time Alt. Az. Time Alt. Az. Time Alt. Az.
22 Apr ? 03:02:32 10° NE 03:05:55 24° E 03:08:49 12° SE visible
22 Apr ? 04:37:21 10° N 04:41:07 36° WNW 04:44:52 10° SW visible
23 Apr ? 03:04:40 10° NE 03:08:07 25° E 03:11:08 12° SSE visible
23 Apr ? 04:39:33 10° N 04:43:17 34° WNW 04:46:59 10° SW visible
24 Apr ? 03:06:46 10° NE 03:10:16 26° E 03:13:24 12° SSE visible
24 Apr ? 04:41:43 10° N 04:45:24 33° WNW 04:49:05 10° SW visible
25 Apr ? 03:08:50 10° NE 03:12:23 28° E 03:15:38 11° SSE visible
25 Apr ? 04:43:51 10° N 04:47:30 32° WNW 04:51:08 10° SW visible
26 Apr ? 03:10:52 10° NE 03:14:28 29° E 03:17:50 11° SSE visible
26 Apr ? 04:45:57 10° N 04:49:33 30° WNW 04:53:09 10° SW visible
27 Apr ? 03:12:52 10° NNE 03:16:31 30° E 03:20:00 11° SSE visible
28 Apr ? 03:14:50 10° NNE 03:18:31 31° E 03:22:07 10° SSE visible
29 Apr ? 03:16:47 10° NNE 03:20:30 32° E 03:24:12 10° SSE visible
30 Apr ? 03:18:41 10° NNE 03:22:26 34° E 03:26:10 10° SSE visible
01 May ? 03:20:33 10° NNE 03:24:20 35° E 03:28:06 10° SSE visible
